Regional Weather Roundup
Issued by NWS

Home | Current Version | Previous Version | Text Only | Print | Product List | Glossary On
Versions: 1 2 3 4 5 6 7 8 9 10 11 12 13 14 15 16 17 18 19 20 21 22 23 24 25 26 27 28 29 30 31 32 33 34 35 36 37 38 39 40 41 42 43 44 45 46 47 48 49 50
000
ASUS44 KFWD 040403
RWRTX
NORTH TEXAS HOURLY WEATHER ROUNDUP
NATIONAL WEATHER SERVICE FORT WORTH TX
1000 PM CST TUE MAR 03 2015

NOTE: "FAIR" INDICATES FEW OR NO CLOUDS BELOW 12,000 FEET WITH NO
SIGNIFICANT WEATHER AND/OR OBSTRUCTIONS TO VISIBILITY.

TXZ118-119-040500-
DALLAS/FORT WORTH METROPLEX

CITY           SKY/WX    TMP DP  RH WIND       PRES   REMARKS
DFW AIRPORT    CLOUDY    51  51 100 CALM      29.87S
DALLAS LOVE    CLOUDY    53  52  96 CALM      29.88R
FTW MEACHAM    CLOUDY    53  51  93 CALM      29.87S FOG
DAL-EXECUTIVE  CLOUDY    53  52  96 CALM      29.87R FOG
FTW-ALLIANCE   CLOUDY    51  50  96 CALM      29.88S FOG
FTW-SPINKS     FOG       51  50  97 CALM      29.88F VSB 1/4
ARLINGTON      CLOUDY    52  49  89 CALM      29.87S FOG
GRAND PRAIRIE  CLOUDY    51  51 100 CALM      29.89R
ADDISON        CLOUDY    53  53 100 CALM      29.89R FOG
MESQUITE       CLOUDY    50  49  97 CALM      29.89S
LANCASTER      CLOUDY    50  49  95 E3        29.90R FOG
$$

TXZ091>094-102>105-117-120-121-131>134-040500-
NORTH CENTRAL TEXAS

CITY           SKY/WX    TMP DP  RH WIND       PRES   REMARKS
SHRMAN/DENISON FOG       48  48 100 CALM      29.90R VSB 1/2
GAINESVILLE    FOG       47  47  99 CALM      29.91S VSB 1/4
BOWIE          FOG       49  49  99 CALM      29.88F VSB 1/4
BRIDGEPORT     CLOUDY    51  51 100 CALM      29.90R FOG
DECATUR        FOG       50  50 100 CALM      29.89R VSB 1/4
DENTON         CLOUDY    50  48  93 CALM      29.88R FOG
MCKINNEY       FOG       50  50 100 CALM      29.88S VSB 1/2
GREENVILLE     CLOUDY    48  46  93 CALM      29.89S FOG
TERRELL        CLOUDY    52  50  93 CALM      29.89S FOG
WAXAHACHIE     CLOUDY    54  54 100 CALM      29.89R FOG
CLEBURNE       FOG       48  48 100 CALM      29.87F VSB<1/4
GRANBURY       CLOUDY    52  50  95 CALM      29.87S FOG
$$

TXZ083>090-098>101-113>116-127>130-139>142-154-155-040500-
WESTERN NORTH TEXAS

CITY           SKY/WX    TMP DP  RH WIND       PRES   REMARKS
WICHITA FALLS  CLOUDY    48  46  93 SE8       29.87R
WF-KICKAPOO    CLOUDY    52  49  89 SE7       29.89R
VERNON         CLOUDY    51  44  75 SE6       29.85F
ABILENE        CLOUDY    53  48  83 CALM      29.85R
ABILENE-DYESS  CLOUDY    51  47  88 E1        29.85R
BRECKENRIDGE   CLOUDY    53  50  89 SE6       29.85R FOG
GRAHAM         FOG       52  52 100 E3        29.84F VSB 1
MINERAL WELLS  FOG       51  50  96 NE3       29.86R VSB 1/4
STEPHENVILLE   CLOUDY    54  52  93 CALM      29.87S VSB<1/4
COMANCHE       FOG       52  52 100 CALM      29.84F VSB 1/4
BROWNWOOD      CLOUDY    57  55  94 S3        29.85R
COLEMAN        MOCLDY    54  53  95 E3        29.84S
$$

TXZ143>147-156>162-174-175-040500-
CENTRAL TEXAS

CITY           SKY/WX    TMP DP  RH WIND       PRES   REMARKS
WACO           FOG       51  51 100 SE5       29.86F VSB 3/4
WACO-MCGREGOR  PTCLDY    57  54  88 S7        29.87S
HILLSBORO      CLOUDY    54  53  96 CALM      29.87R FOG
CORSICANA      FOG       52  50  93 CALM      29.88S VSB 1/4
MEXIA          FOG       56  56  99 S5        29.87S VSB 1/4
HEARNE         CLOUDY    57  56  97 CALM      29.90S FOG
CAMERON        FOG       57  57  99 CALM      29.89R VSB 1/4
TEMPLE         CLOUDY    55  52  88 S8        29.85S VSB 1/4
KILLEEN        CLOUDY    59  59  98 S8        29.84S FOG
KILLEEN-SKYLRK CLOUDY    61  57  88 S12       29.83S
FORT HOOD      CLOUDY    61  60  95 S9        29.85R
GATESVILLE     CLOUDY    59  59 100 SE5       29.86F FOG
HAMILTON       CLOUDY    55  55 100 SE5       29.85S FOG
LAMPASAS       CLOUDY    62  59  91 S7        29.84F
$$

TXZ095>097-106>112-122>126-135>138-148>153-164>167-040500-
EAST TEXAS

CITY           SKY/WX    TMP DP  RH WIND       PRES   REMARKS
PARIS          CLOUDY    46  43  87 CALM      29.90R
SULPHUR SPRNGS CLOUDY    48  48 100 CALM      29.90F FOG
MOUNT PLEASANT CLOUDY    50  50  97 NW5       29.90R
GILMER         CLOUDY    64  63  96 W3        29.88R
MINEOLA        CLOUDY    54  54 100 CALM      29.90S FOG
TYLER          CLOUDY    62  60  93 NW7       29.88S FOG
LONGVIEW       LGT RAIN  64  61  90 S6        29.88R
MARSHALL       MOCLDY    68  64  86 S10       29.90S
ATHENS         FOG       54  54 100 CALM      29.89R VSB 1/2
PALESTINE      CLOUDY    60  60 100 NW5       29.90R FOG
JACKSONVILLE   CLOUDY    67  65  91 S7        29.90R
HENDERSON      CLOUDY    67  64  89 S3        29.90R
NACOGDOCHES    CLEAR     66  63  88 S9        29.90R
LUFKIN         CLEAR     67  63  87 S9        29.89R
$$

SUPPLEMENTAL OBSERVATIONS (CENTRAL)

CITY           SKY/WX    TMP DP  RH WIND       PRES   REMARKS
$$

SUPPLEMENTAL OBSERVATIONS (WEST)

CITY           SKY/WX    TMP DP  RH WIND       PRES   REMARKS
$$

SUPPLEMENTAL OBSERVATIONS (EAST)

CITY           SKY/WX    TMP DP  RH WIND       PRES   REMARKS
$$

SUPPLEMENTAL OBSERVATIONS ARE A COLLECTION OF AUTOMATED INSTRUMENTS
THAT ARE MAINTAINED BY A VARIETY OF FEDERAL AND STATE AGENCIES.
CERTAIN ELEMENTS...SUCH AS HUMIDITY VALUES AND SUSTAINED WIND
SPEEDS...MAY BE APPROXIMATED.



USA.gov is the U.S. government's official web portal to all federal, state and local government web resources and services.